User: anonymous   Login
Location: Sperry Observatory
(40.6664°N, 74.3236°W)
Time: 21:58:22
(UTC-04:00)
Language:

JAS-2 - Orbit

View from above orbital plane
View from above orbital plane
View from above satellite
View from above satellite

Ground track
Ground track

The orbit data is extracted from the following two-line orbital elements,

1 24278U 96046B   15084.52821560 -.00000019  00000-0  19736-4 0  9996
2 24278 098.5317 064.6696 0349416 287.8062 182.6206 13.53047772918715
Epoch (UTC): 25 March 2015 12:40:37
Eccentricity: 0.0349416
inclination: 98.5317°
perigee height: 801 km
apogee height: 1321 km
right ascension of ascending node: 64.6696°
argument of perigee: 287.8062°
revolutions per day: 13.53047772
mean anomaly at epoch: 182.6206°
orbit number at epoch: 91871

The dashed part of the orbit path shows where the satellite is in the earth's shadow,  

DLR